This demonstration page uses our WeatherBlox Daily Observations layout. Learn more.

Left ArrowRight Arrow

Hourly Observations for January 7, 2017

Temp ( °F °C ) Dew Point ( °F °C ) Humidity (%) Winds ( mph kmh ) Pressure ( in mb ) Visibility ( mi km ) Precip ( " mm )
12:53 am 00:53 Cloudy with Light Rain 40 4.4 33 0.6 77 77 NNW 7 11 30.09 1019 10 16 0.00 0.00
1:27 am 01:27 Cloudy with Light Rain 39 3.9 36 2.2 89 89 W 3 6 30.09 1019 9 14 0.02 0.51
1:53 am 01:53 Cloudy with Light Rain 39 3.9 36 2.2 89 89 NNW 6 9 30.08 1019 8 13 0.04 1.02
2:53 am 02:53 Cloudy with Light Rain 38 3.3 36 2.2 93 93 N 3 6 30.06 1018 8 13 0.06 1.52
3:07 am 03:07 Cloudy with Light Rain 38 3.3 37 2.8 97 97 N 3 6 30.06 1018 9 14 0.01 0.25
3:15 am 03:15 Cloudy with Light Rain 38 3.3 37 2.8 97 97 Calm 30.06 1018 6 10 0.02 0.51
3:51 am 03:51 Cloudy with Light Rain 37 3 37 3 100 100 N 3 6 30.06 1018 5 8 0.06 1.52
3:53 am 03:53 Cloudy with Light Rain 38 3.3 37 2.8 97 97 N 3 6 30.05 1018 6 10 0.06 1.52
4:07 am 04:07 Cloudy with Light Rain 38 3.3 37 2.8 97 97 N 7 11 30.03 1017 7 11 0.01 0.25
4:21 am 04:21 Cloudy with Light Rain 37 2.8 36 2.2 96 96 NNE 7 11 30.03 1017 9 14 0.01 0.25
4:53 am 04:53 Cloudy with Light Rain 37 2.8 36 2.2 96 96 N 6 9 30.00 1016 10 16 0.04 1.02
5:53 am 05:53 Cloudy with Rain 37 2.8 35 1.7 93 93 NNE 3 6 29.98 1015 6 10 0.07 1.78
6:16 am 06:16 Cloudy with Rain 36 2.2 35 1.7 97 97 VRB 3 6 29.97 1015 5 8 0.05 1.27
6:21 am 06:21 Cloudy with Rain 36 2.2 35 1.7 97 97 Calm 29.97 1015 4 6 0.06 1.52
6:40 am 06:40 Cloudy with Light Snow 34 1 34 1 100 100 N 5 7 29.97 1015 2 3 0.00 0.00
6:53 am 06:53 Cloudy with Light Snow 33 0.6 33 0.6 100 100 NNE 7 11 29.98 1015 1 2 0.15 3.81
7:11 am 07:11 Cloudy with Light Snow 33 0.6 33 0.6 100 100 NNE 3 6 29.97 1015 3 4 0.03 0.76
7:16 am 07:16 Cloudy with Light Snow 34 1 34 1 100 100 Calm 30.00 1016 3 4 0.00 0.00
7:23 am 07:23 Cloudy with Light Snow 33 0.6 33 0.6 100 100 N 3 6 30.00 1016 2 3 0.05 1.27
7:36 am 07:36 Cloudy with Light Snow 33 0.6 33 0.6 100 100 Calm 29.97 1015 2 3 0.07 1.78
7:53 am 07:53 Cloudy with Light Snow 33 0.6 33 0.6 100 100 Calm 29.95 1014 2 3 0.10 2.54
8:03 am 08:03 Cloudy with Light Snow 34 1 34 1 100 100 Calm 29.94 1014 1 2 0.00 0.00
8:31 am 08:31 Mostly Cloudy with Light Snow 33 0.6 33 0.6 100 100 NNW 3 6 29.94 1014 1 1 0.12 3.05
8:48 am 08:48 Cloudy with Light Snow 34 1 34 1 100 100 N 3 6 29.94 1014 1 2 0.00 0.00
8:53 am 08:53 Cloudy with Light Snow 33 0.6 33 0.6 100 100 Calm 29.95 1014 2 2 0.17 4.32
9:21 am 09:21 Cloudy with Light Snow 33 0.6 33 0.6 100 100 N 6 9 29.97 1015 3 4 0.04 1.02
9:41 am 09:41 Cloudy with Rain 33 0.6 33 0.6 100 100 NW 5 7 29.94 1014 3 5 0.07 1.78
9:48 am 09:48 Cloudy with Rain 34 1 34 1 100 100 WNW 6 9 29.94 1014 3 4 0.00 0.00
9:53 am 09:53 Cloudy with Rain 33 0.6 33 0.6 100 100 NW 5 7 29.95 1014 3 4 0.10 2.54
10:15 am 10:15 Cloudy with Light Rain 33 0.6 33 0.6 100 100 WNW 5 7 29.94 1014 3 5 0.05 1.27
10:53 am 10:53 Cloudy with Light Rain 33 0.6 33 0.6 100 100 NW 5 7 29.96 1015 3 5 0.09 2.29
11:34 am 11:34 Cloudy with Light Rain 34 1 34 1 100 100 WNW 5 7 29.94 1014 3 4 0.00 0.00
11:53 am 11:53 Cloudy with Mist and Fog 34 1.1 34 1.1 100 100 NNW 5 7 29.94 1014 2 3 0.02 0.51
12:17 pm 12:17 Cloudy with Light Rain 35 1.7 34 1.1 96 96 NNW 5 7 29.94 1014 2 2 0.00 0.00
12:20 pm 12:20 Cloudy with Light Rain 36 2 34 1 93 93 VRB 3 6 29.94 1014 1 2 0.00 0.00
12:22 pm 12:22 Cloudy with Light Rain 36 2 34 1 93 93 VRB 3 6 29.94 1014 1 2 0.00 0.00
12:31 pm 12:31 Cloudy with Mist and Fog 35 1.7 34 1.1 96 96 WNW 5 7 29.94 1014 2 2 0.01 0.25
12:39 pm 12:39 Cloudy with Light Rain 35 1.7 35 1.7 100 100 Calm 29.94 1014 1 2 0.01 0.25
12:53 pm 12:53 Cloudy with Mist and Fog 35 1.7 35 1.7 100 100 Calm 29.94 1014 1 2 0.02 0.51
1:01 pm 13:01 Cloudy with Mist and Fog 36 2.2 35 1.7 97 97 Calm 29.94 1014 1 1 0.00 0.00
1:08 pm 13:08 Cloudy with Fog 36 2 34 1 93 93 Calm 29.94 1014 1 1 0.00 0.00
1:23 pm 13:23 Cloudy with Mist and Fog 36 2.2 35 1.7 97 97 Calm 29.94 1014 1 1 0.01 0.25
1:34 pm 13:34 Cloudy with Mist and Fog 36 2 36 2 100 100 Calm 29.94 1014 1 2 0.00 0.00
1:43 pm 13:43 Cloudy with Mist and Fog 36 2.2 35 1.7 97 97 Calm 29.94 1014 1 2 0.02 0.51
1:53 pm 13:53 Cloudy with Mist and Fog 37 2.8 36 2.2 96 96 Calm 29.95 1014 1 2 0.02 0.51
1:56 pm 13:56 Cloudy with Mist and Fog 36 2 36 2 100 100 Calm 29.94 1014 1 1 0.00 0.00
2:28 pm 14:28 Cloudy with Mist and Fog 37 3 37 3 100 100 Calm 29.94 1014 1 1 0.00 0.00
2:53 pm 14:53 Cloudy with Mist and Fog 37 2.8 37 2.8 100 100 Calm 29.96 1015 1 1 0.00 0.00
2:59 pm 14:59 Cloudy with Mist and Fog 37 2.8 37 2.8 100 100 Calm 29.97 1015 1 2 0.00 0.00
3:11 pm 15:11 Cloudy with Mist and Fog 38 3.3 37 2.8 97 97 Calm 29.97 1015 1 2 0.00 0.00
3:27 pm 15:27 Cloudy with Mist and Fog 38 3.3 37 2.8 97 97 Calm 29.97 1015 1 1 0.00 0.00
3:31 pm 15:31 Cloudy with Mist and Fog 37 2.8 37 2.8 100 100 Calm 29.97 1015 1 1 0.00 0.00
3:53 pm 15:53 Cloudy with Mist and Fog 38 3.3 38 3.3 100 100 Calm 29.99 1016 1 2 0.00 0.00
3:55 pm 15:55 Cloudy with Mist and Fog 38 3.3 38 3.3 100 100 Calm 30.00 1016 1 1 0.00 0.00
4:06 pm 16:06 Cloudy with Mist and Fog 38 3.3 38 3.3 100 100 Calm 30.00 1016 1 2 0.00 0.00
4:15 pm 16:15 Cloudy with Mist and Fog 37 2.8 37 2.8 100 100 Calm 30.00 1016 1 1 0.00 0.00
4:24 pm 16:24 Cloudy with Mist and Fog 37 3 37 3 100 100 Calm 30.00 1016 1 1 0.00 0.00
4:44 pm 16:44 Cloudy with Mist and Fog 37 3 37 3 100 100 W 3 6 30.00 1016 1 2 0.00 0.00
4:53 pm 16:53 Cloudy with Mist and Fog 38 3.3 37 2.8 97 97 WNW 5 7 30.00 1016 1 2 0.00 0.00
5:10 pm 17:10 Cloudy with Mist and Fog 37 3 37 3 100 100 Calm 30.00 1016 2 3 0.00 0.00
5:53 pm 17:53 Cloudy with Mist and Fog 38 3.3 38 3.3 100 100 Calm 30.02 1017 2 2 0.00 0.00
6:07 pm 18:07 Cloudy with Mist and Fog 38 3.3 38 3.3 100 100 NW 3 6 30.03 1017 1 2 0.00 0.00
6:19 pm 18:19 Cloudy with Mist and Fog 38 3.3 38 3.3 100 100 NW 5 7 30.03 1017 2 3 0.00 0.00
6:53 pm 18:53 Cloudy with Mist and Fog 39 3.9 39 3.9 100 100 Calm 30.04 1017 2 2 0.00 0.00
7:00 pm 19:00 Cloudy with Mist and Fog 39 4 39 4 100 100 NNW 3 6 30.03 1017 2 2 0.00 0.00
7:10 pm 19:10 Cloudy with Mist and Fog 39 4 39 4 100 100 N 3 6 30.03 1017 2 3 0.00 0.00
7:18 pm 19:18 Cloudy with Mist and Fog 39 4 39 4 100 100 Calm 30.03 1017 3 4 0.00 0.00
7:53 pm 19:53 Cloudy with Mist and Fog 39 3.9 39 3.9 100 100 WNW 3 6 30.04 1017 2 3 0.00 0.00
8:45 pm 20:45 Cloudy with Mist and Fog 39 3.9 39 3.9 100 100 Calm 30.03 1017 2 3 0.00 0.00
8:53 pm 20:53 Cloudy with Mist and Fog 39 3.9 39 3.9 100 100 Calm 30.05 1018 2 3 0.00 0.00
9:00 pm 21:00 Cloudy with Mist and Fog 39 4 39 4 100 100 NW 3 6 30.03 1017 2 3 0.00 0.00
9:12 pm 21:12 Cloudy with Mist and Fog 39 4 39 4 100 100 Calm 30.03 1017 2 2 0.00 0.00
9:31 pm 21:31 Cloudy with Mist and Fog 39 3.9 39 3.9 100 100 NNW 3 6 30.03 1017 2 3 0.00 0.00
9:46 pm 21:46 Cloudy with Mist and Fog 39 4 39 4 100 100 NNW 3 6 30.03 1017 2 3 0.00 0.00
9:53 pm 21:53 Cloudy with Mist and Fog 40 4.4 40 4.4 100 100 Calm 30.04 1017 2 3 0.00 0.00
10:24 pm 22:24 Cloudy with Mist and Fog 39 4 39 4 100 100 NW 5 7 30.03 1017 2 3 0.00 0.00
10:39 pm 22:39 Cloudy with Mist and Fog 40 4.4 40 4.4 100 100 W 3 6 30.03 1017 2 3 0.00 0.00
10:53 pm 22:53 Cloudy with Light Rain 40 4.4 40 4.4 100 100 Calm 30.04 1017 2 2 0.00 0.00
11:12 pm 23:12 Cloudy with Light Rain 39 4 39 4 100 100 W 3 6 30.03 1017 2 3 0.00 0.00
11:27 pm 23:27 Cloudy with Light Rain 40 4.4 40 4.4 100 100 Calm 30.03 1017 2 3 0.02 0.51
11:37 pm 23:37 Cloudy with Light Rain 40 4.4 39 3.9 97 97 Calm 30.03 1017 2 3 0.02 0.51
11:53 pm 23:53 Cloudy with Light Rain 40 4.4 40 4.4 100 100 Calm 30.01 1016 2 3 0.04 1.02

Powered by AerisWeather